User: anonymous   Login
Location: Observatory Park - Geauga Park District
(41.5832°N, 81.0716°W)
Time: 15:49:14
(UTC-04:00)
Language:

N. Korean satellite - Orbit

View from above orbital plane
View from above orbital plane
View from above satellite
View from above satellite

Ground track
Ground track

The orbit data is extracted from the following two-line orbital elements,

1 39026U 12072A   21288.25690440  .00005794  00000-0  19244-3 0  9991
2 39026  97.2540 278.3179 0033401 319.6628  40.2136 15.31054548491356
Epoch (UTC): 15 October 2021 06:09:56
Eccentricity: 0.0033401
inclination: 97.2540°
perigee height: 450 km
apogee height: 495 km
right ascension of ascending node: 278.3179°
argument of perigee: 319.6628°
revolutions per day: 15.31054548
mean anomaly at epoch: 40.2136°
orbit number at epoch: 49135

The dashed part of the orbit path shows where the satellite is in the earth's shadow,  

DLR